Weather History for Altus, OK

Change the Weather History Date:

Sunday, June 10, 2012

  Actual Average (KLTS) Record (KLTS)
Temperature  
Mean Temperature 91 °F -  
Max Temperature 109 °F 88 °F 105 °F (2012)
Min Temperature 73 °F 65 °F 56 °F (2008)
Cooling Degree Days 26    
Growing Degree Days 41 (Base 50)    
Moisture  
Dew Point 59 °F    
Average Humidity 45    
Maximum Humidity 73    
Minimum Humidity 6    
Precipitation  
Precipitation 0.00 in - - ()
Sea Level Pressure  
Sea Level Pressure 29.67 in    
Wind  
Wind Speed 16 mph (SSE)    
Max Wind Speed 22 mph    
Max Gust Speed 34 mph    
Visibility 10 miles    
Events      
Averages and records for this station are not official NWS values.
T = Trace of Precipitation, MM = Missing Value Source: NWS Daily Summary

Daily Weather History Graph

Daily Weather History Graph

Search for Another Location

Airport:

Trip Planner

Search our weather history database for the weather conditions in past years. The results will help you decide how hot, cold, wet, or windy it might be!

Date:

Astronomy

Jun. 10, 2012 Rise Set
Actual Time 6:23 AM CDT 8:50 PM CDT
Civil Twilight 5:54 AM CDT 9:19 PM CDT
Nautical Twilight 5:18 AM CDT 9:56 PM CDT
Astronomical Twilight 4:38 AM CDT 10:36 PM CDT
Moon 12:56 AM CDT (6/10) 12:59 PM CDT (6/10)
Length of Visible Light 15h 25m
Length of Day
14h 26m
Waning Gibbous, 58% of the Moon is Illuminated
Jun 10
Waning Gibbous
Jun 11
Last Quarter
Jun 19
New
Jun 26
First Quarter
Jul 3
Full

Hourly Weather History & Observations

Time (CDT) Temp. Heat Index Dew Point Humidity Pressure Visibility Wind Dir Wind Speed Gust Speed Precip Events Conditions
12:15 AM 78.8 °F - 62.6 °F 57% 29.70 in 10.0 mi SE 18.4 mph 21.9 mph N/A   Clear
12:35 AM 78.8 °F - 62.6 °F 57% 29.70 in 10.0 mi SE 15.0 mph - N/A   Clear
12:55 AM 78.8 °F - 62.6 °F 57% 29.70 in 10.0 mi SE 16.1 mph 20.7 mph N/A   Clear
1:15 AM 78.8 °F - 62.6 °F 57% 29.70 in 10.0 mi SSE 17.3 mph - N/A   Clear
1:35 AM 77.0 °F - 64.4 °F 65% 29.70 in 10.0 mi SE 17.3 mph 23.0 mph N/A   Clear
1:55 AM 77.0 °F - 64.4 °F 65% 29.69 in 10.0 mi SE 17.3 mph - N/A   Clear
2:15 AM 77.0 °F - 64.4 °F 65% 29.68 in 10.0 mi SE 17.3 mph - N/A   Clear
2:35 AM 77.0 °F - 64.4 °F 65% 29.68 in 10.0 mi SE 17.3 mph - N/A   Clear
2:55 AM 77.0 °F - 64.4 °F 65% 29.67 in 10.0 mi SE 18.4 mph 23.0 mph N/A   Clear
3:15 AM 77.0 °F - 64.4 °F 65% 29.67 in 10.0 mi SE 17.3 mph 21.9 mph N/A   Clear
3:55 AM 75.2 °F - 64.4 °F 69% 29.66 in 10.0 mi SE 17.3 mph 23.0 mph N/A   Clear
4:15 AM 73.4 °F - 64.4 °F 73% 29.66 in 10.0 mi SE 15.0 mph - N/A   Clear
4:35 AM 73.4 °F - 64.4 °F 73% 29.67 in 10.0 mi SE 15.0 mph - N/A   Clear
4:55 AM 73.4 °F - 64.4 °F 73% 29.67 in 10.0 mi SE 12.7 mph 18.4 mph N/A   Clear
5:15 AM 73.4 °F - 64.4 °F 73% 29.67 in 10.0 mi SE 12.7 mph - N/A   Clear
5:35 AM 73.4 °F - 64.4 °F 73% 29.67 in 10.0 mi SSE 12.7 mph - N/A   Clear
5:55 AM 73.4 °F - 64.4 °F 73% 29.67 in 10.0 mi SE 13.8 mph - N/A   Clear
6:15 AM 73.4 °F - 62.6 °F 69% 29.67 in 10.0 mi SE 15.0 mph 19.6 mph N/A   Clear
6:35 AM 73.4 °F - 64.4 °F 73% 29.67 in 10.0 mi SE 15.0 mph - N/A   Clear
6:55 AM 73.4 °F - 64.4 °F 73% 29.67 in 10.0 mi SE 15.0 mph - N/A   Clear
7:15 AM 73.4 °F - 64.4 °F 73% 29.68 in 10.0 mi SSE 15.0 mph - N/A   Clear
7:35 AM 73.4 °F - 64.4 °F 73% 29.68 in 10.0 mi SSE 13.8 mph - N/A   Clear
7:55 AM 75.2 °F - 64.4 °F 69% 29.68 in 10.0 mi SSE 18.4 mph 24.2 mph N/A   Clear
8:15 AM 77.0 °F - 64.4 °F 65% 29.69 in 10.0 mi SSE 17.3 mph 23.0 mph N/A   Clear
8:35 AM 78.8 °F - 64.4 °F 61% 29.69 in 10.0 mi South 19.6 mph - N/A   Clear
8:55 AM 78.8 °F - 64.4 °F 61% 29.69 in 10.0 mi South 21.9 mph 26.5 mph N/A   Clear
9:15 AM 80.6 °F 82.3 °F 64.4 °F 58% 29.69 in 10.0 mi SSE 21.9 mph 26.5 mph N/A   Clear
9:35 AM 82.4 °F 83.9 °F 64.4 °F 54% 29.69 in 10.0 mi South 17.3 mph 27.6 mph N/A   Clear
9:55 AM 84.2 °F 85.0 °F 62.6 °F 48% 29.69 in 10.0 mi South 20.7 mph 26.5 mph N/A   Clear
10:15 AM 86.0 °F 86.6 °F 62.6 °F 45% 29.69 in 10.0 mi South 21.9 mph 26.5 mph N/A   Clear
10:35 AM 87.8 °F 88.5 °F 62.6 °F 43% 29.69 in 10.0 mi South 19.6 mph - N/A   Clear
10:55 AM 87.8 °F 87.6 °F 60.8 °F 40% 29.68 in 10.0 mi SSW 17.3 mph 24.2 mph N/A   Clear
11:15 AM 89.6 °F 89.5 °F 60.8 °F 38% 29.68 in 10.0 mi South 19.6 mph 25.3 mph N/A   Clear
11:35 AM 89.6 °F 89.5 °F 60.8 °F 38% 29.68 in 10.0 mi SSW 20.7 mph - N/A   Clear
11:55 AM 91.4 °F 91.4 °F 60.8 °F 36% 29.68 in 10.0 mi South 18.4 mph 21.9 mph N/A   Clear
12:15 PM 91.4 °F 90.7 °F 59.0 °F 34% 29.68 in 10.0 mi South 16.1 mph - N/A   Clear
12:35 PM 93.2 °F 92.6 °F 59.0 °F 32% 29.68 in 10.0 mi South 17.3 mph - N/A   Clear
12:55 PM 95.0 °F 94.4 °F 59.0 °F 30% 29.67 in 10.0 mi South 18.4 mph 21.9 mph N/A   Clear
1:15 PM 96.8 °F 95.8 °F 57.2 °F 27% 29.67 in 10.0 mi SSW 13.8 mph 20.7 mph N/A   Clear
1:35 PM 98.6 °F 96.4 °F 53.6 °F 22% 29.66 in 10.0 mi South 15.0 mph - N/A   Clear
2:15 PM 100.4 °F - 48.2 °F 17% 29.65 in 10.0 mi SSW 13.8 mph - N/A   Clear
2:35 PM 104.0 °F - 50.0 °F 16% 29.64 in 10.0 mi South 13.8 mph 17.3 mph N/A   Clear
2:55 PM 104.0 °F - 42.8 °F 12% 29.64 in 10.0 mi SW 11.5 mph - N/A   Clear
3:15 PM 104.0 °F 102.3 °F 53.6 °F 19% 29.63 in 10.0 mi SSE 12.7 mph 19.6 mph N/A   Clear
3:35 PM 105.8 °F 104.3 °F 53.6 °F 18% 29.63 in 10.0 mi South 16.1 mph 20.7 mph N/A   Clear
3:55 PM 105.8 °F - 51.8 °F 17% 29.63 in 10.0 mi SSE 19.6 mph 25.3 mph N/A   Clear
4:15 PM 107.6 °F - 46.4 °F 13% 29.63 in 10.0 mi SSW 13.8 mph 19.6 mph N/A   Clear
4:35 PM 105.8 °F - 48.2 °F 14% 29.62 in 10.0 mi SSE 11.5 mph 17.3 mph N/A   Clear
4:55 PM 107.6 °F - 46.4 °F 13% 29.62 in 10.0 mi SSE 13.8 mph 17.3 mph N/A   Clear
5:15 PM 107.6 °F - 44.6 °F 12% 29.62 in 10.0 mi SSE 16.1 mph 23.0 mph N/A   Clear
5:35 PM 107.6 °F - 44.6 °F 12% 29.61 in 10.0 mi SSE 12.7 mph - N/A   Clear
6:15 PM 109.4 °F - 28.4 °F 6% 29.61 in 10.0 mi WSW 12.7 mph 17.3 mph N/A   Clear
6:35 PM 109.4 °F - 28.4 °F 6% 29.61 in 10.0 mi WSW 13.8 mph - N/A   Clear
6:55 PM 107.6 °F - 28.4 °F 6% 29.60 in 10.0 mi WSW 17.3 mph 20.7 mph N/A   Clear
7:15 PM 107.6 °F - 26.6 °F 6% 29.61 in 10.0 mi WSW 10.4 mph - N/A   Clear
7:55 PM 98.6 °F 99.4 °F 60.8 °F 29% 29.62 in 10.0 mi SE 18.4 mph 23.0 mph N/A   Clear
8:15 PM 96.8 °F 98.0 °F 62.6 °F 32% 29.63 in 10.0 mi SE 21.9 mph 34.5 mph N/A   Clear
8:35 PM 95.0 °F 97.0 °F 64.4 °F 36% 29.63 in 10.0 mi SE 18.4 mph 27.6 mph N/A   Clear
8:55 PM 93.2 °F 94.9 °F 64.4 °F 38% 29.64 in 10.0 mi SE 21.9 mph 26.5 mph N/A   Clear
9:15 PM 91.4 °F 93.2 °F 64.4 °F 41% 29.66 in 10.0 mi SE 17.3 mph 25.3 mph N/A   Clear
9:35 PM 89.6 °F 93.4 °F 68.0 °F 49% 29.67 in 10.0 mi ESE 16.1 mph 19.6 mph N/A   Clear
9:55 PM 87.8 °F 91.4 °F 68.0 °F 52% 29.68 in 10.0 mi SE 16.1 mph - N/A   Clear
10:15 PM 87.8 °F 91.4 °F 68.0 °F 52% 29.69 in 10.0 mi SE 13.8 mph - N/A   Clear
10:35 PM 87.8 °F 91.4 °F 68.0 °F 52% 29.70 in 10.0 mi SE 11.5 mph - N/A   Clear
10:55 PM 86.0 °F 89.4 °F 68.0 °F 55% 29.72 in 10.0 mi SE 12.7 mph - N/A   Clear
11:15 PM 86.0 °F 89.4 °F 68.0 °F 55% 29.72 in 10.0 mi SE 12.7 mph - N/A   Clear
11:35 PM 84.2 °F 87.3 °F 68.0 °F 58% 29.73 in 10.0 mi SE 11.5 mph - N/A   Clear
11:55 PM 82.4 °F 85.4 °F 68.0 °F 62% 29.73 in 10.0 mi ESE 8.1 mph - N/A   Clear